Regional Weather Roundup
Issued by NWS

Home | Current Version | Previous Version | Graphics & Text | Print | Product List | Glossary Off
Versions: 1 2 3 4 5 6 7 8 9 10 11 12 13 14 15 16 17 18 19 20 21 22 23 24 25 26 27 28 29 30 31 32 33 34 35 36 37 38 39 40 41 42 43 44 45 46 47 48 49 50

000
ASUS43 KDTX 271910
RWRMI
MICHIGAN HOURLY REGIONAL WEATHER ROUNDUP
NATIONAL WEATHER SERVICE DETROIT/PONTIAC MI
200 PM EST TUE JAN 27 2015

NOTE: "FAIR" INDICATES FEW OR NO CLOUDS BELOW 12,000 FEET WITH NO
SIGNIFICANT WEATHER AND/OR OBSTRUCTION TO VISIBILITY.

MIZ047>049-052>055-059>063-066>070-074>076-081>083-272000-
SOUTHEAST LOWER MICHIGAN

CITY           SKY/WX    TMP DP  RH WIND       PRES   REMARKS
ADRIAN         SUNNY     25  11  55 NE8       30.11S WCI  16
ALMA           SUNNY     25  10  53 E7        30.15F WCI  17
ANN ARBOR      SUNNY     26  10  50 N9        30.10F WCI  17
BAD AXE        PTSUNNY   21  14  75 N13       30.13F WCI   8
CARO           PTSUNNY   23  13  64 N9        30.13F WCI  13
DETROIT CITY   SUNNY     27  12  53 N13       30.10S WCI  16
DETROIT        MOSUNNY   27  13  55 N9        30.11S WCI  18
FLINT          SUNNY     27  11  51 N10       30.12F WCI  17
GROSSE ILE     PTSUNNY   25  12  58 N8        30.08F WCI  16
HILLSDALE      SUNNY     24  11  57 CALM      30.08S
HOWELL         MOSUNNY   23  13  64 N8G17     30.10S WCI  14

CITY           SKY/WX    TMP DP  RH WIND       PRES   REMARKS
JACKSON        MOSUNNY   25  12  58 N8        30.10S WCI  16
LAMBERTVILLE   SUNNY     28  10  47 N6        30.11S WCI  22
LANSING        PTSUNNY   25  14  63 NE8       30.14S WCI  16
LAPEER         FAIR      23  11  59 N8        30.11F WCI  14
MASON          MOSUNNY   24  13  62 NE8       30.12R WCI  15
MONROE         SUNNY     25  12  58 N8        30.09S WCI  16
MT. CLEMENS    MOSUNNY   25  14  63 N14       30.08S WCI  13
PONTIAC        MOSUNNY   24  11  57 N9        30.08F WCI  14
PORT HOPE        N/A     23  14  68 N7G16     30.14R WCI  15
PORT HURON     PTSUNNY   23  14  68 N8G17     30.10S WCI  14
TRI CITIES     MOSUNNY   24  13  62 NE14      30.16S WCI  12
TROY           MOSUNNY   27  11  50 N5        30.11F WCI  22
SAGINAW HB     PTSUNNY   25  16  68 N15       30.15S WCI  12
$$
MIZ043>046-050>051-056>058-064>065-071>073-077>080-272000-
SOUTHWEST LOWER MICHIGAN

CITY           SKY/WX    TMP DP  RH WIND       PRES   REMARKS
BATTLE CREEK   SUNNY    N/A N/A N/A MISG      30.13S
BENTON HARBOR  SUNNY     26  12  55 VRB6      30.17R WCI  19
BIG RAPIDS     SUNNY     25  10  52 N5        30.15R WCI  19
COLDWATER      SUNNY     24  11  56 CALM      30.12R
FREMONT        FAIR      26   9  50 NW6       30.18R WCI  19
HOLLAND        SUNNY     27  11  51 VRB7      30.18R WCI  19
GRAND RAPIDS   MOSUNNY   26  12  55 CALM      30.16R
IONIA          FAIR      26  12  55 N6        30.14S WCI  19
KALAMAZOO      SUNNY     27   9  46 N7        30.14S WCI  19
LUDINGTON      SUNNY     28   9  45 CALM      30.20S
MARSHALL       SUNNY     24  11  57 NW5       30.11S WCI  19
MOUNT PLEASANT SUNNY     24   9  51 N6        30.16R WCI  17
MUSKEGON       SUNNY     29  10  45 NE6       30.19R WCI  23
SOUTH HAVEN    SUNNY     28   8  43 CALM      30.17R
$$
MIZ016>042-272000-
NORTHERN LOWER MICHIGAN

CITY           SKY/WX    TMP DP  RH WIND       PRES   REMARKS
ALPENA         SUNNY     20   8  60 NE8       30.19F WCI  10
BEAVER ISLAND  SUNNY     18   1  45 CALM      30.23S
BELLAIRE       SUNNY     25   3  40 N3        30.20S
CADILLAC       SUNNY     23   2  40 NE5       30.13R WCI  17
CHARLEVOIX     SUNNY     21   9  58 N7        30.23F WCI  13
FRANKFORT      SUNNY     25  14  63 N6        30.20F WCI  18
GAYLORD        SUNNY     21   1  41 NW6       30.14S WCI  13
GRAYLING       SUNNY     21   1  41 N6        30.15S WCI  14
HARBOR SPRINGS SUNNY     21   5  49 E6        30.20S WCI  14
HOUGHTON LAKE  SUNNY     23   1  38 NE10      30.14S WCI  12
MANISTEE       SUNNY     25   9  50 NW5       30.20F WCI  19
OSCODA         MOSUNNY   22  12  64 NE12      30.17S WCI  11
PELLSTON       SUNNY     22   5  48 NE3       30.20F
ROGERS CITY    SUNNY     18   8  63 E7        30.22S WCI   9
TRAVERSE CITY  SUNNY     24  11  57 NE8       30.19S WCI  15
$$
MIZ007>008-015-272000-
EASTERN UPPER MICHIGAN

CITY           SKY/WX    TMP DP  RH WIND       PRES   REMARKS
KINROSS        SUNNY     25   0  33 CALM      30.21F
MACKINAC ISLAN SUNNY     18   2  51 NE6       30.21F WCI  10
NEWBERRY       SUNNY     19   1  44 W5        30.20F WCI  13
S. S. MARIE    SUNNY     17  -5  37 CALM      30.21F
MUNISING         N/A     26  12  55 N3        30.22F
$$
MIZ004>006-011>014-085-272000-
CENTRAL UPPER MICHIGAN

CITY           SKY/WX    TMP DP  RH WIND       PRES   REMARKS
MANISTIQUE     SUNNY     21  12  68 CALM      30.23S
ESCANABA       CLOUDY    23  16  74 CALM      30.24S
MENOMINEE      CLOUDY    27  18  69 E7        30.22S WCI  19
SAWYER-GWINN   CLOUDY    19  18  93 SW3       30.18S
$$
MIZ001>003-009>011-084-272000-
WESTERN UPPER MICHIGAN

CITY           SKY/WX    TMP DP  RH WIND       PRES   REMARKS
IRON MOUNTAIN  CLOUDY    23  16  74 E3        30.18S
HOUGHTON       SUNNY     24  16  71 VRB3      30.15F
COPPER HARBOR    N/A     26  18  71 VRB6      30.19F WCI  19
IRONWOOD       CLOUDY    27  19  74 SW5       30.14R WCI  21
$$

ABBREVIATIONS USED IN REMARKS
   TC - TEMPERATURE IN CELSIUS
  WCI - WIND CHILL INDEX
   HX - HEAT INDEX
  VSB - VISIBILITY




USA.gov is the U.S. government's official web portal to all federal, state and local government web resources and services.